#timestamp,LO_Frequency,Hit 
1500814815.8,286043993.4,N
1500814835.6,286043993.8,N
1500814855.4,286043994.0,N
1500814875.3,286043994.0,N
1500814895.1,286043993.4,N
1500814915.9,286043993.6,N
1500814935.7,286043993.5,N
1500814955.5,286043993.3,N
1500814975.4,286043994.6,N
1500814995.2,286043994.5,N
1500815015.1,286043993.5,N
1500815016.0,286043993.5,N
1500815035.8,286043993.8,N
1500815055.6,286043994.0,N
1500815075.5,286043993.9,N
1500815095.3,286043996.2,N
1500815115.2,286043993.6,N
1500815135.9,286043993.2,N
1500815155.7,286043993.3,N
1500815175.6,286043993.4,N
1500815195.4,286043993.3,N
1500815215.2,286043996.0,N
1500815235.1,286043996.0,N
1500815236.0,286043996.0,N
1500815255.8,286043995.4,N
1500815275.7,286043995.3,N
1500815295.5,286043996.1,N
1500815315.3,286043995.6,N
1500815335.2,286043995.5,N
1500815355.0,286043995.5,N
1500815355.9,286043995.5,N
1500815375.8,286043995.9,N
1500815395.6,286043995.0,N
1500815415.4,286043995.5,N
1500815435.3,286043995.1,N
1500815455.1,286043996.0,N
1500815475.8,286043995.6,N
1500815495.7,286043995.9,N
1500815515.5,286043993.6,N
1500815535.4,286043996.3,N
1500815555.2,286043993.4,N
1500815575.0,286043993.7,N
1500815575.9,286043993.7,N
1500815595.8,286043994.3,N
1500815615.6,286043994.2,N
1500815635.5,286043992.0,N
1500815655.3,286043993.5,N
1500815675.1,286043994.5,N
1500815695.9,286043994.7,N
1500815715.7,286043996.2,N
1500815735.6,286043996.0,N
1500815755.4,286043995.8,N
1500815775.2,286043996.2,N
1500815795.1,286043995.0,N
1500815796.0,286043995.0,N
1500815815.8,286043995.6,N
1500815835.7,286043995.6,N
1500815855.5,286043996.1,N
1500815875.3,286043995.9,N
1500815895.2,286043996.1,N
1500815915.0,286043993.7,N
1500815915.9,286043993.7,N
1500815935.8,286043996.3,N
1500815955.6,286043993.7,N
1500815975.4,286043996.1,N
1500815995.3,286043995.9,N
1500816015.1,286043993.3,N
1500816035.9,286043995.9,N
1500816055.7,286043993.8,N
1500816075.5,286043995.9,N
1500816095.4,286043993.3,N
1500816115.2,286043994.0,N
1500816135.1,286043994.0,N
1500816136.0,286043994.0,N
1500816155.8,286043993.4,N
1500816175.6,286043993.4,N
1500816195.5,286043993.4,N
1500816215.3,286043993.4,N
1500816235.1,286043993.7,N
1500816255.9,286043993.7,N
1500816275.7,286043993.6,N
1500816295.6,286043996.1,N
1500816315.4,286043995.6,N
1500816335.2,286043996.1,Y
1500816355.1,286046999.4,N
1500816356.0,286046999.4,N
1500816375.8,286046996.9,N
1500816395.7,286046999.1,N
1500816415.5,286046999.6,N
1500816435.3,286046999.4,N
1500816455.2,286046998.3,N
1500816475.0,286046999.0,N
1500816475.9,286046999.0,N
1500816495.8,286047000.7,N
1500816515.6,286046998.5,N
1500816535.4,286046998.4,N
1500816555.3,286046998.3,N
1500816575.1,286046998.4,N
1500816595.9,286047000.2,N
1500816615.7,286047001.1,N
1500816635.5,286047000.7,N
1500816655.4,286046998.3,N
1500816675.2,286046998.7,N
1500816695.0,286046998.8,N
1500816695.9,286046998.8,N
1500816715.8,286047001.2,N
1500816735.6,286046998.4,N
1500816755.5,286046996.9,N
1500816775.3,286046999.0,N
1500816795.1,286046998.4,N
1500816815.9,286046996.9,N
1500816835.7,286046999.6,N
1500816855.6,286046996.7,N
1500816875.4,286046999.6,N
1500816895.2,286046997.4,N
1500816915.1,286046995.2,N
1500816916.0,286046995.2,N
1500816935.8,286046995.9,N
1500816955.6,286046995.9,N
1500816975.5,286046996.1,N
1500816995.3,286046994.5,N
1500817015.2,286046994.8,N
1500817035.9,286046992.6,N
1500817055.7,286046992.3,N
1500817075.6,286046992.8,N
1500817095.4,286046986.3,N
1500817115.3,286046992.4,N
1500817135.1,286046992.5,N
1500817136.0,286046992.5,N
1500817155.8,286046992.6,N
1500817175.7,286046990.3,N
1500817195.5,286046990.4,N
1500817215.4,286046991.0,N
1500817235.2,286046993.0,N
1500817255.0,286046992.5,N
1500817255.9,286046992.5,N
1500817275.8,286046990.2,N
1500817295.6,286046990.5,N
1500817315.4,286046992.6,N
1500817335.3,286046993.2,N
1500817355.1,286046992.2,N
1500817375.9,286046992.5,N
1500817395.7,286046993.1,N
1500817415.5,286046993.2,N
1500817435.4,286046992.7,N
1500817455.2,286046993.2,N
1500817475.1,286046990.6,N
1500817476.0,286046990.6,N
1500817495.8,286046991.4,N
1500817515.6,286046989.0,N
1500817535.5,286046991.3,N
1500817555.3,286046990.9,N
1500817575.2,286046991.1,N
1500817595.9,286046991.1,N
1500817615.7,286046989.3,N
1500817635.6,286046988.6,N
1500817655.4,286046988.8,N
1500817675.2,286046986.9,N
1500817695.1,286046989.8,N
1500817696.0,286046989.8,N
1500817715.8,286046989.5,N
1500817735.7,286046989.5,N
1500817755.5,286046987.1,N
1500817775.3,286046987.1,N
1500817795.2,286046990.0,N
1500817815.0,286046987.0,N
1500817815.9,286046987.0,N
1500817835.8,286046988.7,N
1500817855.6,286046988.8,N
1500817875.4,286046987.0,N
1500817895.3,286046988.2,N
1500817915.1,286046988.3,N
1500817935.9,286046987.5,N
1500817955.7,286046988.0,N
1500817975.5,286046985.3,N
1500817995.4,286046987.9,N
1500818015.2,286046987.2,N
1500818035.0,286046987.1,N
1500818036.0,286046987.1,N
1500818055.8,286046988.6,N
1500818075.6,286046988.9,N
1500818095.5,286046987.4,N
1500818115.3,286046989.9,N
1500818135.1,286046989.7,N
1500818155.9,286046987.9,N
1500818175.7,286046987.6,N
1500818195.6,286046987.6,N
1500818215.4,286046988.2,N
1500818235.2,286045500.9,N
1500818255.1,286046987.8,N
1500818256.0,286046987.8,N
1500818275.8,286046987.7,N
1500818295.6,286046985.5,N
1500818315.5,286046986.8,N
1500818335.3,286046986.7,N
1500818355.2,286046986.5,N
1500818375.9,286046986.3,N
1500818395.7,286046985.7,N
